Flag for U.S.A. Weather past 2 weeks in Chesapeake, Virginia, U.S.A.

Now
46 °F

Clear.


Feels Like: 46 °F
Forecast: 33 / 47 °F
Wind: No wind

Location: Chesapeake Municipal Airport

Current Time: Dec 17, 2014 at 7:57:13 PM

Latest Report: Dec 17, 2014 at 7:15 PM


Visibility: 10 mi

Pressure: 30.04 "Hg

Humidity: 82%

Dew point: 41 °F

Location of ChesapeakeLocation

Historic Weather in Chesapeake — Graph

°F

Chesapeake temperature yesterday

Maximum temperature yesterday: 66 °F (at 1:35 PM)
Minimum temperature yesterday: 32 °F (at 6:15 AM)
Average temperature yesterday: 49 °F

Past Weeks' High & Low Weather Summary

 TemperatureHumidityPressure
High66 °F (Dec 6, 12:35 PM)100% (Dec 2, 6:15 PM)30.50 "Hg (Dec 2, 6:15 PM)
Low27 °F (Dec 13, 4:35 AM)28% (Dec 12, 1:35 PM)29.82 "Hg (Dec 9, 2:15 PM)
Average46 °F78%30.13 "Hg
* Reported Dec 2 6:15 PM — Dec 17 6:55 PM, Chesapeake, Weather by CustomWeather, © 2014

Note: Actual official high and low records may vary slightly from our data, if they occured in-between our weather recording intervals... More about our weather records

Advertising

Chesapeake weather history for previous 24 hours

 ConditionsComfort  
Time TempWeatherWind HumidityBarometerVisibility
6:55 PM
Dec 17
46 °FClear.No wind87%30.03 "Hg10 mi
6:15 PM45 °FClear.No wind81%30.03 "Hg10 mi
5:55 PM48 °FClear.No wind76%30.02 "Hg10 mi
5:15 PM52 °FClear.6 mph67%30.01 "Hg10 mi
4:55 PM55 °FClear.6 mph63%30.00 "Hg10 mi
4:35 PM57 °FSunny.8 mph59%29.99 "Hg10 mi
4:15 PM57 °FSunny.6 mph59%29.98 "Hg10 mi
3:55 PM61 °FSunny.8 mph52%29.98 "Hg10 mi
3:15 PM63 °FSunny.10 mph49%29.97 "Hg10 mi
2:55 PM63 °FSunny.6 mph49%29.97 "Hg10 mi
2:35 PM63 °FSunny.6 mph49%29.97 "Hg10 mi
2:15 PM63 °FSunny.7 mph49%29.97 "Hg10 mi
1:55 PM63 °FSunny.12 mph49%29.98 "Hg10 mi
1:35 PM61 °FSunny.10 mph52%29.99 "Hg10 mi
1:15 PM61 °FSunny.9 mph52%29.99 "Hg10 mi
12:55 PM61 °FSunny.9 mph52%30.00 "Hg10 mi
12:35 PM61 °FSunny.12 mph55%30.01 "Hg10 mi
12:15 PM61 °FSunny.8 mph55%30.01 "Hg10 mi
11:55 AM61 °FSunny.8 mph55%30.02 "Hg10 mi
11:35 AM57 °FSunny.8 mph63%30.03 "Hg10 mi
11:15 AM57 °FSunny.7 mph63%30.04 "Hg10 mi
10:55 AM57 °FSunny.8 mph67%30.05 "Hg10 mi
10:35 AM55 °FSunny.5 mph72%30.06 "Hg10 mi
10:15 AM54 °FSunny.3 mph72%30.07 "Hg10 mi
9:55 AM52 °FSunny.6 mph82%30.07 "Hg10 mi
9:35 AM50 °FSunny.5 mph88%30.06 "Hg10 mi
9:15 AM48 °FSunny.No wind94%30.06 "Hg10 mi
8:55 AM46 °FSunny.No wind100%30.06 "Hg10 mi
8:35 AM45 °FFog.No wind100%30.05 "Hg4 mi
8:15 AM43 °FFog.No wind100%30.05 "Hg1 mi
7:55 AM39 °FFog.No wind100%30.04 "Hg0 mi
7:35 AM37 °FFog.No wind100%30.03 "Hg0 mi
7:15 AM39 °FFog.No wind100%30.02 "Hg1 mi
6:55 AM39 °FFog.No wind100%30.02 "Hg1 mi
6:35 AM39 °FFog.No wind100%30.01 "Hg1 mi
6:15 AM39 °FFog.No wind100%29.99 "Hg0 mi
5:55 AM43 °FFog.No wind100%29.98 "Hg0 mi
5:35 AM45 °FFog.No wind100%29.97 "Hg0 mi
5:15 AM45 °FFog.No wind100%29.97 "Hg0 mi
4:55 AM46 °FFog.No wind100%29.97 "Hg1 mi
4:35 AM46 °FFog.No wind100%29.96 "Hg1 mi
4:15 AM46 °FFog.No wind100%29.96 "Hg2 mi
3:55 AM48 °FFog.No wind94%29.95 "Hg2 mi
3:35 AM48 °FFog.No wind100%29.95 "Hg2 mi
3:15 AM48 °FFog.3 mph100%29.95 "Hg2 mi
2:55 AM50 °FFog.No wind94%29.94 "Hg3 mi
2:35 AM50 °FFog.No wind94%29.94 "Hg4 mi
2:15 AM50 °FFog.6 mph94%29.93 "Hg4 mi
1:55 AM52 °FFog.3 mph88%29.93 "Hg5 mi
1:35 AM52 °FFog.6 mph94%29.93 "Hg5 mi
1:15 AM52 °FFog.7 mph94%29.92 "Hg5 mi
12:55 AM52 °FLow clouds.10 mph94%29.92 "Hg7 mi
12:35 AM52 °FLow clouds.8 mph94%29.92 "Hg7 mi
12:15 AM52 °FLow clouds.6 mph94%29.92 "Hg7 mi
11:55 PM
Dec 16
52 °FLow clouds.7 mph100%29.92 "Hg7 mi
11:35 PM54 °FLow clouds.7 mph94%29.92 "Hg7 mi
11:15 PM52 °FLow clouds.8 mph100%29.91 "Hg7 mi
10:55 PM52 °FFog.9 mph100%29.92 "Hg5 mi
10:15 PM50 °FFog.5 mph100%29.91 "Hg2 mi
9:55 PM48 °FFog.3 mph100%29.91 "Hg1 mi
9:15 PM52 °FFog.No wind100%29.91 "Hg3 mi
8:55 PM52 °FFog.5 mph100%29.91 "Hg2 mi
8:35 PM52 °FFog.No wind100%29.92 "Hg1 mi
8:15 PM54 °FFog.No wind94%29.93 "Hg3 mi
7:55 PM54 °FFog.No wind100%29.93 "Hg4 mi
7:35 PM54 °FRain. Overcast.No wind100%29.93 "Hg5 mi
7:15 PM54 °FRain. Mostly cloudy.No wind100%29.93 "Hg7 mi
Weather by CustomWeather, © 2014

See weather overviewHow to use our weather pages